Tracking 18980 objects as of 21-Feb-2018
HD Live streaming from Space Station
objects crossing your sky now

NOAA 16 DEB

Track NOAA 16 DEB now!
10-day predictions


NORAD ID: 41092
Int'l Code: 2000-055BB
Perigee: 722.3 km
Apogee: 845.2 km
Inclination: 98.9 °
Period: 100.4 minutes
Semi major axis: 7154 km
RCS: Unknown
Launch date: September 21, 2000
Source: United States (US)
Launch site: AIR FORCE WESTERN TEST RANGE (AFWTR)

Note: This is SATELLITE DEBRIS
aabbcc
Your satellite tracking list
Your tracking list is empty




NASA's NSSDC Master Catalog

Two Line Element Set (TLE):
1 41092U 00055BB  18052.23374950  .00002140  00000-0  74363-3 0  9998
2 41092  98.8753 153.8877 0085897 236.6940 122.5996 14.34537808116481
Source of the keplerian elements: AFSPC